Simultaneous Nadir Overpasses (SNOs) Predictions

Prediction of SNOs between LANDSAT-8 and METOP-A Satellite Orbit:

Table of predicted SNOs for the next 14.0 days since TLE Epoch: 4/6/2018
Index Date (LANDSAT-8) Time (LANDSAT-8) Lat,Lon (LANDSAT-8) SZA (LANDSAT-8 ) Date (METOP-A) Time (METOP-A) Lat,Lon (METOP-A) SZA (METOP-A ) Distance(km) Time Diff (sec)
1 04/09/2018 06:41:13 81.32, 122.30 76.01 04/09/2018 06:40:24 81.32, 122.22 75.97 1.60 49
2 04/09/2018 07:30:40 -81.32, -70.15 104.02 04/09/2018 07:31:04 -81.32, -70.03 104.00 2.10 24
3 04/12/2018 02:15:26 81.31,-171.43 74.97 04/12/2018 02:14:41 81.32,-171.29 74.97 2.32 45
4 04/12/2018 03:04:52 -81.33, -3.47 105.00 04/12/2018 03:05:21 -81.33, -3.50 105.00 0.75 29
5 04/14/2018 21:49:39 81.33,-104.80 74.00 04/14/2018 21:48:59 81.32,-104.81 73.98 0.67 40
6 04/14/2018 22:39:06 -81.32, 62.81 106.02 04/14/2018 22:39:40 -81.32, 62.63 106.03 3.01 34
7 04/17/2018 17:23:53 81.31, -38.57 72.99 04/17/2018 17:23:18 81.31, -38.73 72.96 2.56 35
8 04/17/2018 18:13:19 -81.33, 129.43 106.97 04/17/2018 18:13:57 -81.33, 129.52 106.94 1.48 38




NCC Satellite Simultaneous Nadir Overpasses (SNOs) Prediction Service
